Time,TemperatureF,DewpointF,PressureIn,WindDirection,WindDirectionDegrees,WindSpeedMPH,WindSpeedGustMPH,Humidity,HourlyPrecipIn,Conditions,Clouds,dailyrainin,SoftwareType,DateUTC
2013-04-08 00:00:00,43.4,39.8,29.95,WNW,290,18.0,18.0,87,0.00,,,0.00,Wunderground v.1.15,2013-04-08 04:00:00,
2013-04-08 00:01:00,43.5,39.9,29.95,WNW,291,17.0,18.0,87,0.00,,,0.00,Wunderground v.1.15,2013-04-08 04:01:00,
2013-04-08 00:04:00,43.5,39.9,29.96,NW,314,18.0,18.0,87,0.00,,,0.00,Wunderground v.1.15,2013-04-08 04:04:00,
2013-04-08 00:06:00,43.6,40.0,29.96,NW,313,17.0,18.0,87,0.00,,,0.00,Wunderground v.1.15,2013-04-08 04:06:00,
2013-04-08 00:11:00,43.5,39.9,29.96,NW,319,17.0,17.0,87,0.00,,,0.00,Wunderground v.1.15,2013-04-08 04:11:00,
2013-04-08 00:17:00,43.6,40.0,29.96,NW,322,19.0,19.0,87,0.00,,,0.00,Wunderground v.1.15,2013-04-08 04:17:00,
2013-04-08 00:22:00,43.7,40.1,29.96,NW,325,17.0,18.0,87,0.00,,,0.00,Wunderground v.1.15,2013-04-08 04:22:00,
2013-04-08 00:27:00,43.6,40.0,29.95,NW,325,18.0,18.0,87,0.00,,,0.00,Wunderground v.1.15,2013-04-08 04:27:00,
2013-04-08 00:33:00,43.6,40.0,29.95,NNW,327,18.0,18.0,87,0.00,,,0.00,Wunderground v.1.15,2013-04-08 04:33:00,
2013-04-08 00:38:00,43.8,40.2,29.95,NW,319,17.0,19.0,87,0.00,,,0.00,Wunderground v.1.15,2013-04-08 04:38:00,
2013-04-08 00:43:00,43.8,39.9,29.95,NW,314,17.0,18.0,86,0.00,,,0.00,Wunderground v.1.15,2013-04-08 04:43:00,
2013-04-08 00:49:00,43.8,39.9,29.95,NW,319,17.0,18.0,86,0.00,,,0.00,Wunderground v.1.15,2013-04-08 04:49:00,
2013-04-08 00:54:00,43.8,40.2,29.95,NW,318,19.0,19.0,87,0.00,,,0.00,Wunderground v.1.15,2013-04-08 04:54:00,
2013-04-08 01:00:00,44.2,40.3,29.95,NW,321,18.0,18.0,86,0.00,,,0.00,Wunderground v.1.15,2013-04-08 05:00:00,
2013-04-08 01:05:00,44.2,40.3,29.95,NW,323,16.0,18.0,86,0.00,,,0.00,Wunderground v.1.15,2013-04-08 05:05:00,
2013-04-08 01:11:00,44.1,40.2,29.95,NW,319,14.0,16.0,86,0.00,,,0.00,Wunderground v.1.15,2013-04-08 05:11:00,
2013-04-08 01:16:00,44.0,40.1,29.95,NW,316,15.0,16.0,86,0.00,,,0.00,Wunderground v.1.15,2013-04-08 05:16:00,
2013-04-08 01:22:00,44.1,40.2,29.94,NW,319,16.0,16.0,86,0.00,,,0.00,Wunderground v.1.15,2013-04-08 05:22:00,
2013-04-08 01:27:00,44.1,40.2,29.94,NW,323,16.0,16.0,86,0.00,,,0.00,Wunderground v.1.15,2013-04-08 05:27:00,
2013-04-08 01:32:00,44.0,40.1,29.94,NW,323,15.0,17.0,86,0.00,,,0.00,Wunderground v.1.15,2013-04-08 05:32:00,
2013-04-08 01:37:00,44.1,40.2,29.94,NNW,327,17.0,17.0,86,0.00,,,0.00,Wunderground v.1.15,2013-04-08 05:37:00,
2013-04-08 01:43:00,44.1,40.5,29.94,NW,319,16.0,17.0,87,0.00,,,0.00,Wunderground v.1.15,2013-04-08 05:43:00,
2013-04-08 01:48:00,44.0,40.4,29.94,NW,312,15.0,17.0,87,0.00,,,0.00,Wunderground v.1.15,2013-04-08 05:48:00,
2013-04-08 01:53:00,44.1,40.5,29.94,NW,312,17.0,17.0,87,0.00,,,0.00,Wunderground v.1.15,2013-04-08 05:53:00,
2013-04-08 01:58:00,44.1,40.5,29.93,NW,313,17.0,17.0,87,0.00,,,0.00,Wunderground v.1.15,2013-04-08 05:58:00,
2013-04-08 02:03:00,44.1,40.5,29.93,NW,319,17.0,18.0,87,0.00,,,0.00,Wunderground v.1.15,2013-04-08 06:03:00,
2013-04-08 02:08:00,44.3,40.4,29.93,NW,315,18.0,19.0,86,0.00,,,0.00,Wunderground v.1.15,2013-04-08 06:08:00,
2013-04-08 02:13:00,44.3,40.4,29.93,NNW,331,18.0,19.0,86,0.00,,,0.00,Wunderground v.1.15,2013-04-08 06:13:00,
2013-04-08 02:18:00,44.3,40.4,29.92,NW,325,18.0,19.0,86,0.00,,,0.00,Wunderground v.1.15,2013-04-08 06:18:00,
2013-04-08 02:23:00,44.2,40.6,29.92,NW,322,18.0,19.0,87,0.00,,,0.00,Wunderground v.1.15,2013-04-08 06:23:00,
2013-04-08 02:28:00,44.2,40.6,29.92,NNW,328,19.0,20.0,87,0.00,,,0.00,Wunderground v.1.15,2013-04-08 06:28:00,
2013-04-08 02:33:00,44.3,40.7,29.92,NW,326,19.0,20.0,87,0.00,,,0.00,Wunderground v.1.15,2013-04-08 06:33:00,
2013-04-08 02:38:00,44.3,40.7,29.92,NNW,333,18.0,21.0,87,0.00,,,0.00,Wunderground v.1.15,2013-04-08 06:38:00,
2013-04-08 02:43:00,44.2,40.6,29.92,NW,311,16.0,21.0,87,0.00,,,0.00,Wunderground v.1.15,2013-04-08 06:43:00,
2013-04-08 02:48:00,44.1,40.5,29.92,NW,321,21.0,21.0,87,0.00,,,0.00,Wunderground v.1.15,2013-04-08 06:48:00,
2013-04-08 02:53:00,44.1,40.5,29.91,NW,321,18.0,20.0,87,0.00,,,0.00,Wunderground v.1.15,2013-04-08 06:53:00,
2013-04-08 02:58:00,44.0,40.7,29.91,NW,314,17.0,20.0,88,0.00,,,0.00,Wunderground v.1.15,2013-04-08 06:58:00,
2013-04-08 03:03:00,44.0,40.7,29.91,NW,319,17.0,19.0,88,0.00,,,0.00,Wunderground v.1.15,2013-04-08 07:03:00,
2013-04-08 03:09:00,43.9,40.6,29.91,NW,321,16.0,19.0,88,0.00,,,0.00,Wunderground v.1.15,2013-04-08 07:09:00,
2013-04-08 03:14:00,43.8,40.5,29.91,NW,325,16.0,18.0,88,0.00,,,0.00,Wunderground v.1.15,2013-04-08 07:14:00,
2013-04-08 03:19:00,43.6,40.6,29.91,NW,318,15.0,18.0,89,0.00,,,0.00,Wunderground v.1.15,2013-04-08 07:19:00,
2013-04-08 03:24:00,43.6,40.6,29.91,NW,321,16.0,17.0,89,0.00,,,0.00,Wunderground v.1.15,2013-04-08 07:24:00,
2013-04-08 03:29:00,43.6,40.6,29.91,WNW,301,17.0,19.0,89,0.00,,,0.00,Wunderground v.1.15,2013-04-08 07:29:00,
2013-04-08 03:34:00,43.8,40.8,29.91,WNW,301,20.0,20.0,89,0.00,,,0.00,Wunderground v.1.15,2013-04-08 07:34:00,
2013-04-08 03:40:00,43.8,40.8,29.91,NW,305,19.0,20.0,89,0.00,,,0.00,Wunderground v.1.15,2013-04-08 07:40:00,
2013-04-08 03:45:00,43.9,40.9,29.91,NW,311,19.0,20.0,89,0.00,,,0.00,Wunderground v.1.15,2013-04-08 07:45:00,
2013-04-08 03:50:00,43.9,40.9,29.91,NW,321,19.0,19.0,89,0.00,,,0.00,Wunderground v.1.15,2013-04-08 07:50:00,
2013-04-08 03:55:00,43.7,40.7,29.91,NW,321,16.0,19.0,89,0.00,,,0.00,Wunderground v.1.15,2013-04-08 07:55:00,
2013-04-08 04:00:00,43.6,40.6,29.91,NW,314,16.0,17.0,89,0.00,,,0.00,Wunderground v.1.15,2013-04-08 08:00:00,
2013-04-08 04:05:00,43.8,41.1,29.92,NW,325,16.0,17.0,90,0.00,,,0.00,Wunderground v.1.15,2013-04-08 08:05:00,
2013-04-08 04:10:00,44.0,41.0,29.91,NW,326,16.0,16.0,89,0.00,,,0.00,Wunderground v.1.15,2013-04-08 08:10:00,
2013-04-08 04:15:00,44.2,41.2,29.91,NW,323,15.0,17.0,89,0.00,,,0.00,Wunderground v.1.15,2013-04-08 08:15:00,
2013-04-08 04:20:00,44.4,41.1,29.91,NNW,329,15.0,16.0,88,0.00,,,0.00,Wunderground v.1.15,2013-04-08 08:20:00,
2013-04-08 04:25:00,44.3,41.0,29.91,NNW,331,17.0,17.0,88,0.00,,,0.00,Wunderground v.1.15,2013-04-08 08:25:00,
2013-04-08 04:30:00,44.1,41.1,29.91,NW,321,16.0,17.0,89,0.00,,,0.00,Wunderground v.1.15,2013-04-08 08:30:00,
2013-04-08 04:35:00,44.1,41.1,29.91,NW,321,16.0,18.0,89,0.00,,,0.00,Wunderground v.1.15,2013-04-08 08:35:00,
2013-04-08 04:40:00,44.1,41.1,29.91,NNW,329,16.0,16.0,89,0.00,,,0.00,Wunderground v.1.15,2013-04-08 08:40:00,
2013-04-08 04:45:00,44.2,41.2,29.91,NW,326,16.0,16.0,89,0.00,,,0.00,Wunderground v.1.15,2013-04-08 08:45:00,
2013-04-08 04:50:00,44.0,41.0,29.91,NW,325,15.0,16.0,89,0.00,,,0.00,Wunderground v.1.15,2013-04-08 08:50:00,
2013-04-08 04:55:00,44.0,41.3,29.92,NW,322,16.0,17.0,90,0.00,,,0.00,Wunderground v.1.15,2013-04-08 08:55:00,
2013-04-08 05:01:00,43.9,41.2,29.92,NW,322,15.0,16.0,90,0.00,,,0.00,Wunderground v.1.15,2013-04-08 09:01:00,
2013-04-08 05:06:00,43.9,41.2,29.92,NW,323,15.0,16.0,90,0.00,,,0.00,Wunderground v.1.15,2013-04-08 09:06:00,
2013-04-08 05:12:00,44.0,41.3,29.92,NW,325,16.0,16.0,90,0.00,,,0.00,Wunderground v.1.15,2013-04-08 09:12:00,
2013-04-08 05:17:00,43.9,41.2,29.92,NW,323,15.0,16.0,90,0.00,,,0.00,Wunderground v.1.15,2013-04-08 09:17:00,
2013-04-08 05:22:00,43.8,41.1,29.92,NW,321,17.0,17.0,90,0.00,,,0.00,Wunderground v.1.15,2013-04-08 09:22:00,
2013-04-08 05:27:00,43.1,41.5,29.92,NW,325,16.0,17.0,94,0.00,,,0.00,Wunderground v.1.15,2013-04-08 09:27:00,
2013-04-08 05:32:00,43.1,41.5,29.92,NW,325,16.0,16.0,94,0.00,,,0.00,Wunderground v.1.15,2013-04-08 09:32:00,
2013-04-08 05:37:00,-999.9,-99.9,29.93,North,32767,-999.0,16.0,255,-99.99,,,0.00,Wunderground v.1.15,2013-04-08 09:37:00,
2013-04-08 05:42:00,-999.9,-99.9,29.92,North,32767,-999.0,-999.0,255,-99.99,,,0.00,Wunderground v.1.15,2013-04-08 09:42:00,
2013-04-08 05:47:00,-999.9,-99.9,29.92,North,32767,-999.0,-999.0,255,-99.99,,,0.00,Wunderground v.1.15,2013-04-08 09:47:00,
2013-04-08 05:52:00,-999.9,-99.9,29.93,North,32767,-999.0,-999.0,255,-99.99,,,0.00,Wunderground v.1.15,2013-04-08 09:52:00,
2013-04-08 05:57:00,-999.9,-99.9,29.93,North,32767,-999.0,-999.0,255,-99.99,,,0.00,Wunderground v.1.15,2013-04-08 09:57:00,
2013-04-08 06:02:00,-999.9,-99.9,29.92,North,32767,-999.0,-999.0,255,-99.99,,,0.00,Wunderground v.1.15,2013-04-08 10:02:00,
2013-04-08 06:07:00,-999.9,-99.9,29.93,North,32767,-999.0,-999.0,255,-99.99,,,0.00,Wunderground v.1.15,2013-04-08 10:07:00,
2013-04-08 06:12:00,-999.9,-99.9,29.93,North,32767,-999.0,-999.0,255,-99.99,,,0.00,Wunderground v.1.15,2013-04-08 10:12:00,
2013-04-08 06:17:00,-999.9,-99.9,29.93,North,32767,-999.0,-999.0,255,-99.99,,,0.00,Wunderground v.1.15,2013-04-08 10:17:00,
2013-04-08 06:22:00,-999.9,-99.9,29.93,North,32767,-999.0,-999.0,255,-99.99,,,0.00,Wunderground v.1.15,2013-04-08 10:22:00,
2013-04-08 06:27:00,-999.9,-99.9,29.93,North,32767,-999.0,-999.0,255,-99.99,,,0.00,Wunderground v.1.15,2013-04-08 10:27:00,
2013-04-08 06:32:00,-999.9,-99.9,29.94,North,32767,-999.0,-999.0,255,-99.99,,,0.00,Wunderground v.1.15,2013-04-08 10:32:00,
2013-04-08 06:37:00,-999.9,-99.9,29.94,North,32767,-999.0,-999.0,255,-99.99,,,0.00,Wunderground v.1.15,2013-04-08 10:37:00,
2013-04-08 06:42:00,-999.9,-99.9,29.94,North,32767,-999.0,-999.0,255,-99.99,,,0.00,Wunderground v.1.15,2013-04-08 10:42:00,
2013-04-08 06:47:00,44.4,41.4,29.94,NW,322,17.0,18.0,89,0.00,,,0.00,Wunderground v.1.15,2013-04-08 10:47:00,
2013-04-08 06:52:00,44.4,41.4,29.94,NW,326,18.0,19.0,89,0.00,,,0.00,Wunderground v.1.15,2013-04-08 10:52:00,
2013-04-08 06:57:00,44.2,41.2,29.94,NW,326,16.0,19.0,89,0.00,,,0.00,Wunderground v.1.15,2013-04-08 10:57:00,
2013-04-08 07:02:00,44.3,41.3,29.95,NW,323,16.0,18.0,89,0.00,,,0.00,Wunderground v.1.15,2013-04-08 11:02:00,
2013-04-08 07:07:00,44.4,41.4,29.95,NW,311,16.0,18.0,89,0.00,,,0.00,Wunderground v.1.15,2013-04-08 11:07:00,
2013-04-08 07:12:00,44.2,40.9,29.95,NW,315,13.0,16.0,88,0.00,,,0.00,Wunderground v.1.15,2013-04-08 11:12:00,
2013-04-08 07:17:00,44.2,41.2,29.95,NW,316,14.0,16.0,89,0.00,,,0.00,Wunderground v.1.15,2013-04-08 11:17:00,
2013-04-08 07:22:00,44.0,41.0,29.95,NW,311,12.0,14.0,89,0.00,,,0.00,Wunderground v.1.15,2013-04-08 11:22:00,
2013-04-08 07:27:00,43.8,40.8,29.96,NW,305,11.0,14.0,89,0.00,,,0.00,Wunderground v.1.15,2013-04-08 11:27:00,
2013-04-08 07:32:00,43.7,41.0,29.95,NW,309,12.0,15.0,90,0.00,,,0.00,Wunderground v.1.15,2013-04-08 11:32:00,
2013-04-08 07:37:00,43.7,41.0,29.96,NW,315,14.0,15.0,90,0.00,,,0.00,Wunderground v.1.15,2013-04-08 11:37:00,
2013-04-08 07:42:00,43.9,40.9,29.96,NW,305,13.0,14.0,89,0.00,,,0.00,Wunderground v.1.15,2013-04-08 11:42:00,
2013-04-08 07:47:00,43.8,40.8,29.96,WNW,298,11.0,14.0,89,0.00,,,0.00,Wunderground v.1.15,2013-04-08 11:47:00,
2013-04-08 07:52:00,43.8,40.8,29.96,NW,311,12.0,12.0,89,0.00,,,0.00,Wunderground v.1.15,2013-04-08 11:52:00,
2013-04-08 07:57:00,43.9,40.9,29.96,NW,317,11.0,13.0,89,0.00,,,0.00,Wunderground v.1.15,2013-04-08 11:57:00,
2013-04-08 08:02:00,44.0,41.0,29.95,NW,318,12.0,13.0,89,0.00,,,0.00,Wunderground v.1.15,2013-04-08 12:02:00,
2013-04-08 08:07:00,44.1,40.8,29.95,NW,309,11.0,14.0,88,0.00,,,0.00,Wunderground v.1.15,2013-04-08 12:07:00,
2013-04-08 08:12:00,44.4,40.8,29.96,NW,317,11.0,12.0,87,0.00,,,0.00,Wunderground v.1.15,2013-04-08 12:12:00,
2013-04-08 08:17:00,44.7,40.8,29.96,NW,322,9.0,12.0,86,0.00,,,0.00,Wunderground v.1.15,2013-04-08 12:17:00,
2013-04-08 08:23:00,45.0,40.8,29.96,NW,315,8.0,11.0,85,0.00,,,0.00,Wunderground v.1.15,2013-04-08 12:23:00,
2013-04-08 08:28:00,45.1,40.6,29.96,NW,314,8.0,11.0,84,0.00,,,0.00,Wunderground v.1.15,2013-04-08 12:28:00,
2013-04-08 08:33:00,44.6,40.7,29.97,WNW,297,8.0,9.0,86,0.00,,,0.00,Wunderground v.1.15,2013-04-08 12:33:00,
2013-04-08 08:38:00,44.3,40.7,29.96,WNW,298,8.0,9.0,87,0.00,,,0.00,Wunderground v.1.15,2013-04-08 12:38:00,
2013-04-08 08:43:00,44.6,40.7,29.96,NW,309,8.0,8.0,86,0.00,,,0.00,Wunderground v.1.15,2013-04-08 12:43:00,
2013-04-08 08:48:00,45.1,40.9,29.96,NW,316,6.0,8.0,85,0.00,,,0.00,Wunderground v.1.15,2013-04-08 12:48:00,
2013-04-08 08:53:00,45.8,40.6,29.96,NNW,333,8.0,8.0,82,0.00,,,0.00,Wunderground v.1.15,2013-04-08 12:53:00,
2013-04-08 08:58:00,46.2,40.7,29.96,NW,321,8.0,8.0,81,0.00,,,0.00,Wunderground v.1.15,2013-04-08 12:58:00,
2013-04-08 09:03:00,46.5,40.7,29.96,NW,316,5.0,9.0,80,0.00,,,0.00,Wunderground v.1.15,2013-04-08 13:03:00,
2013-04-08 09:08:00,46.6,40.4,29.96,NW,321,5.0,9.0,79,0.00,,,0.00,Wunderground v.1.15,2013-04-08 13:08:00,
2013-04-08 09:14:00,46.8,40.3,29.96,NW,326,8.0,8.0,78,0.00,,,0.00,Wunderground v.1.15,2013-04-08 13:14:00,
2013-04-08 09:19:00,47.2,40.0,29.97,North,7,11.0,12.0,76,0.00,,,0.00,Wunderground v.1.15,2013-04-08 13:19:00,
2013-04-08 09:24:00,48.1,39.5,29.96,NE,46,20.0,20.0,72,0.00,,,0.00,Wunderground v.1.15,2013-04-08 13:24:00,
2013-04-08 09:29:00,49.0,39.3,29.96,ENE,57,17.0,22.0,69,0.00,,,0.00,Wunderground v.1.15,2013-04-08 13:29:00,
2013-04-08 09:34:00,48.1,39.5,29.97,NNE,29,15.0,19.0,72,0.00,,,0.00,Wunderground v.1.15,2013-04-08 13:34:00,
2013-04-08 09:39:00,48.8,39.1,29.97,North,1,19.0,20.0,69,0.00,,,0.00,Wunderground v.1.15,2013-04-08 13:39:00,
2013-04-08 09:44:00,48.9,38.8,29.97,NE,41,18.0,22.0,68,0.00,,,0.00,Wunderground v.1.15,2013-04-08 13:44:00,
2013-04-08 09:49:00,49.2,38.3,29.97,NNE,27,20.0,23.0,66,0.00,,,0.00,Wunderground v.1.15,2013-04-08 13:49:00,
2013-04-08 09:54:00,49.6,38.3,29.98,ENE,74,22.0,24.0,65,0.00,,,0.00,Wunderground v.1.15,2013-04-08 13:54:00,
2013-04-08 09:59:00,50.1,38.4,29.98,NE,35,20.0,21.0,64,0.00,,,0.00,Wunderground v.1.15,2013-04-08 13:59:00,
2013-04-08 10:04:00,50.2,38.5,29.98,North,11,17.0,22.0,64,0.00,,,0.00,Wunderground v.1.15,2013-04-08 14:04:00,
2013-04-08 10:10:00,50.1,38.4,29.98,NNE,33,18.0,19.0,64,0.00,,,0.00,Wunderground v.1.15,2013-04-08 14:10:00,
2013-04-08 10:15:00,50.2,38.1,29.98,NNE,23,21.0,24.0,63,0.00,,,0.00,Wunderground v.1.15,2013-04-08 14:15:00,
2013-04-08 10:20:00,50.0,37.9,29.98,NNE,20,23.0,23.0,63,0.00,,,0.00,Wunderground v.1.15,2013-04-08 14:20:00,
2013-04-08 10:25:00,50.4,37.9,29.99,ENE,74,21.0,24.0,62,0.00,,,0.00,Wunderground v.1.15,2013-04-08 14:25:00,
2013-04-08 10:30:00,50.5,37.5,29.99,North,357,23.0,23.0,61,0.00,,,0.00,Wunderground v.1.15,2013-04-08 14:30:00,
2013-04-08 10:35:00,50.5,37.5,29.99,NNE,30,21.0,24.0,61,0.00,,,0.00,Wunderground v.1.15,2013-04-08 14:35:00,
2013-04-08 10:40:00,50.8,37.0,29.99,NNE,25,22.0,25.0,59,0.00,,,0.00,Wunderground v.1.15,2013-04-08 14:40:00,
2013-04-08 10:45:00,50.9,37.5,29.99,NE,36,20.0,23.0,60,0.00,,,0.00,Wunderground v.1.15,2013-04-08 14:45:00,
2013-04-08 10:50:00,51.0,37.2,29.99,ENE,61,18.0,20.0,59,0.00,,,0.00,Wunderground v.1.15,2013-04-08 14:50:00,
2013-04-08 10:55:00,50.9,37.1,30.00,NE,35,20.0,23.0,59,0.00,,,0.00,Wunderground v.1.15,2013-04-08 14:55:00,
2013-04-08 11:00:00,50.6,36.8,30.00,ENE,72,21.0,21.0,59,0.00,,,0.00,Wunderground v.1.15,2013-04-08 15:00:00,
2013-04-08 11:05:00,49.9,37.4,30.00,NE,44,19.0,22.0,62,0.00,,,0.00,Wunderground v.1.15,2013-04-08 15:05:00,
2013-04-08 11:10:00,50.6,36.8,30.00,ENE,57,20.0,21.0,59,0.00,,,0.00,Wunderground v.1.15,2013-04-08 15:10:00,
2013-04-08 11:15:00,51.0,36.3,30.00,NNE,15,20.0,22.0,57,0.00,,,0.00,Wunderground v.1.15,2013-04-08 15:15:00,
2013-04-08 11:20:00,51.0,36.7,30.01,NE,40,15.0,19.0,58,0.00,,,0.00,Wunderground v.1.15,2013-04-08 15:20:00,
2013-04-08 11:25:00,50.8,37.0,30.01,ENE,60,16.0,19.0,59,0.00,,,0.00,Wunderground v.1.15,2013-04-08 15:25:00,
2013-04-08 11:30:00,50.2,36.8,30.01,East,94,19.0,19.0,60,0.00,,,0.00,Wunderground v.1.15,2013-04-08 15:30:00,
2013-04-08 11:35:00,50.7,36.5,30.01,NNE,33,16.0,20.0,58,0.00,,,0.00,Wunderground v.1.15,2013-04-08 15:35:00,
2013-04-08 11:40:00,50.5,37.1,30.02,NE,40,17.0,17.0,60,0.00,,,0.00,Wunderground v.1.15,2013-04-08 15:40:00,
2013-04-08 11:45:00,50.6,36.4,30.02,NNE,31,13.0,17.0,58,0.00,,,0.00,Wunderground v.1.15,2013-04-08 15:45:00,
2013-04-08 11:50:00,50.4,36.6,30.02,NNE,12,12.0,14.0,59,0.00,,,0.00,Wunderground v.1.15,2013-04-08 15:50:00,
2013-04-08 11:55:00,50.0,36.7,30.01,East,85,14.0,15.0,60,0.00,,,0.00,Wunderground v.1.15,2013-04-08 15:55:00,
2013-04-08 12:02:00,50.9,36.2,30.01,ENE,65,13.0,15.0,57,0.00,,,0.00,Wunderground v.1.15,2013-04-08 16:02:00,
2013-04-08 12:07:00,51.7,36.0,30.02,ENE,63,8.0,15.0,55,0.00,,,0.00,Wunderground v.1.15,2013-04-08 16:07:00,
2013-04-08 12:12:00,50.7,36.9,30.02,NNE,15,8.0,12.0,59,0.00,,,0.00,Wunderground v.1.15,2013-04-08 16:12:00,
2013-04-08 12:17:00,50.4,37.0,30.02,NNE,15,8.0,12.0,60,0.00,,,0.00,Wunderground v.1.15,2013-04-08 16:17:00,
2013-04-08 12:22:00,50.1,37.2,30.02,NNE,20,11.0,11.0,61,0.00,,,0.00,Wunderground v.1.15,2013-04-08 16:22:00,
2013-04-08 12:28:00,50.5,37.1,30.03,NE,47,10.0,12.0,60,0.00,,,0.00,Wunderground v.1.15,2013-04-08 16:28:00,
2013-04-08 12:33:00,51.2,36.0,30.03,ENE,72,10.0,12.0,56,0.00,,,0.00,Wunderground v.1.15,2013-04-08 16:33:00,
2013-04-08 12:38:00,52.1,35.9,30.03,NNE,19,7.0,12.0,54,0.00,,,0.00,Wunderground v.1.15,2013-04-08 16:38:00,
2013-04-08 12:43:00,51.6,36.9,30.02,NNW,344,7.0,9.0,57,0.00,,,0.00,Wunderground v.1.15,2013-04-08 16:43:00,
2013-04-08 12:48:00,51.7,36.5,30.02,NNW,346,6.0,9.0,56,0.00,,,0.00,Wunderground v.1.15,2013-04-08 16:48:00,
2013-04-08 12:53:00,52.1,36.9,30.02,NNW,338,4.0,6.0,56,0.00,,,0.00,Wunderground v.1.15,2013-04-08 16:53:00,
2013-04-08 12:58:00,52.5,36.8,30.03,NNW,338,7.0,7.0,55,0.00,,,0.00,Wunderground v.1.15,2013-04-08 16:58:00,
2013-04-08 13:03:00,52.6,36.9,30.02,NW,315,3.0,7.0,55,0.00,,,0.00,Wunderground v.1.15,2013-04-08 17:03:00,
2013-04-08 13:08:00,52.8,36.6,30.02,NNW,344,4.0,7.0,54,0.00,,,0.00,Wunderground v.1.15,2013-04-08 17:08:00,
2013-04-08 13:13:00,53.0,36.8,30.02,NNW,332,7.0,7.0,54,0.00,,,0.00,Wunderground v.1.15,2013-04-08 17:13:00,
2013-04-08 13:18:00,52.9,36.2,30.02,NNE,33,2.0,7.0,53,0.00,,,0.00,Wunderground v.1.15,2013-04-08 17:18:00,
2013-04-08 13:23:00,53.3,36.1,30.02,NNW,339,5.0,5.0,52,0.00,,,0.00,Wunderground v.1.15,2013-04-08 17:23:00,
2013-04-08 13:28:00,53.5,36.3,30.02,NNW,342,3.0,5.0,52,0.00,,,0.00,Wunderground v.1.15,2013-04-08 17:28:00,
2013-04-08 13:33:00,54.1,36.4,30.02,North,349,5.0,5.0,51,0.00,,,0.00,Wunderground v.1.15,2013-04-08 17:33:00,
2013-04-08 13:38:00,53.9,36.7,30.02,NNW,336,3.0,5.0,52,0.00,,,0.00,Wunderground v.1.15,2013-04-08 17:38:00,
2013-04-08 13:43:00,54.1,37.8,30.02,WSW,250,2.0,5.0,54,0.00,,,0.00,Wunderground v.1.15,2013-04-08 17:43:00,
2013-04-08 13:48:00,53.9,38.1,30.02,West,270,3.0,6.0,55,0.00,,,0.00,Wunderground v.1.15,2013-04-08 17:48:00,
2013-04-08 13:53:00,53.7,38.8,30.02,WSW,255,3.0,5.0,57,0.00,,,0.00,Wunderground v.1.15,2013-04-08 17:53:00,
2013-04-08 13:58:00,53.4,39.0,30.01,WSW,252,5.0,5.0,58,0.00,,,0.00,Wunderground v.1.15,2013-04-08 17:58:00,
2013-04-08 14:03:00,53.8,38.9,30.02,SW,226,8.0,8.0,57,0.00,,,0.00,Wunderground v.1.15,2013-04-08 18:03:00,
2013-04-08 14:08:00,52.7,38.8,30.02,WSW,238,9.0,11.0,59,0.00,,,0.00,Wunderground v.1.15,2013-04-08 18:08:00,
2013-04-08 14:13:00,52.1,38.6,30.02,WSW,242,8.0,9.0,60,0.00,,,0.00,Wunderground v.1.15,2013-04-08 18:13:00,
2013-04-08 14:18:00,52.0,39.0,30.02,SSW,207,8.0,10.0,61,0.00,,,0.00,Wunderground v.1.15,2013-04-08 18:18:00,
2013-04-08 14:23:00,51.8,40.0,30.02,SSW,205,8.0,11.0,64,0.00,,,0.00,Wunderground v.1.15,2013-04-08 18:23:00,
2013-04-08 14:28:00,50.8,39.8,30.02,SW,215,10.0,11.0,66,0.00,,,0.00,Wunderground v.1.15,2013-04-08 18:28:00,
2013-04-08 14:33:00,50.5,38.8,30.01,SW,224,12.0,13.0,64,0.00,,,0.00,Wunderground v.1.15,2013-04-08 18:33:00,
2013-04-08 14:38:00,50.3,40.1,30.01,SW,222,11.0,14.0,68,0.00,,,0.00,Wunderground v.1.15,2013-04-08 18:38:00,
2013-04-08 14:43:00,49.9,39.8,30.01,SW,235,12.0,15.0,68,0.00,,,0.00,Wunderground v.1.15,2013-04-08 18:43:00,
2013-04-08 14:48:00,50.0,39.8,30.02,SW,231,11.0,15.0,68,0.00,,,0.00,Wunderground v.1.15,2013-04-08 18:48:00,
2013-04-08 14:53:00,50.3,39.0,30.02,SW,226,15.0,16.0,65,0.00,,,0.00,Wunderground v.1.15,2013-04-08 18:53:00,
2013-04-08 14:58:00,50.2,38.5,30.01,SW,219,13.0,16.0,64,0.00,,,0.00,Wunderground v.1.15,2013-04-08 18:58:00,
2013-04-08 15:03:00,50.2,38.5,30.02,SW,236,15.0,15.0,64,0.00,,,0.00,Wunderground v.1.15,2013-04-08 19:03:00,
2013-04-08 15:08:00,50.0,38.3,30.02,SW,222,14.0,16.0,64,0.00,,,0.00,Wunderground v.1.15,2013-04-08 19:08:00,
2013-04-08 15:13:00,49.7,38.4,30.02,SW,218,13.0,15.0,65,0.00,,,0.00,Wunderground v.1.15,2013-04-08 19:13:00,
2013-04-08 15:18:00,49.4,38.5,30.02,SW,226,13.0,15.0,66,0.00,,,0.00,Wunderground v.1.15,2013-04-08 19:18:00,
2013-04-08 15:23:00,49.1,38.6,30.01,SW,217,11.0,16.0,67,0.00,,,0.00,Wunderground v.1.15,2013-04-08 19:23:00,
2013-04-08 15:28:00,48.6,38.9,30.01,SW,214,12.0,17.0,69,0.00,,,0.00,Wunderground v.1.15,2013-04-08 19:28:00,
2013-04-08 15:33:00,48.4,39.1,30.01,WSW,240,13.0,15.0,70,0.00,,,0.00,Wunderground v.1.15,2013-04-08 19:33:00,
2013-04-08 15:38:00,47.7,39.8,30.01,SSW,207,13.0,15.0,74,0.00,,,0.00,Wunderground v.1.15,2013-04-08 19:38:00,
2013-04-08 15:43:00,47.3,40.1,30.01,SW,214,13.0,14.0,76,0.00,,,0.00,Wunderground v.1.15,2013-04-08 19:43:00,
2013-04-08 15:48:00,47.1,40.6,30.01,SSW,201,13.0,14.0,78,0.00,,,0.00,Wunderground v.1.15,2013-04-08 19:48:00,
2013-04-08 15:54:00,46.9,40.4,30.01,SW,220,16.0,17.0,78,0.00,,,0.00,Wunderground v.1.15,2013-04-08 19:54:00,
2013-04-08 15:59:00,47.3,40.5,30.01,SW,221,14.0,18.0,77,0.00,,,0.00,Wunderground v.1.15,2013-04-08 19:59:00,
2013-04-08 16:04:00,47.7,40.5,30.01,SW,219,16.0,18.0,76,0.00,,,0.00,Wunderground v.1.15,2013-04-08 20:04:00,
2013-04-08 16:09:00,47.7,40.5,30.01,SW,228,14.0,18.0,76,0.00,,,0.00,Wunderground v.1.15,2013-04-08 20:09:00,
2013-04-08 16:14:00,47.7,40.5,30.01,SW,224,15.0,18.0,76,0.00,,,0.00,Wunderground v.1.15,2013-04-08 20:14:00,
2013-04-08 16:19:00,48.0,40.8,30.02,SW,219,16.0,18.0,76,0.00,,,0.00,Wunderground v.1.15,2013-04-08 20:19:00,
2013-04-08 16:24:00,47.7,40.8,30.02,WSW,240,15.0,17.0,77,0.00,,,0.00,Wunderground v.1.15,2013-04-08 20:24:00,
2013-04-08 16:29:00,47.2,41.0,30.02,SW,231,16.0,16.0,79,0.00,,,0.00,Wunderground v.1.15,2013-04-08 20:29:00,
2013-04-08 16:34:00,46.9,41.4,30.02,WSW,246,14.0,18.0,81,0.00,,,0.00,Wunderground v.1.15,2013-04-08 20:34:00,
2013-04-08 16:40:00,46.7,41.2,30.02,SSW,208,16.0,18.0,81,0.00,,,0.00,Wunderground v.1.15,2013-04-08 20:40:00,
2013-04-08 16:45:00,46.5,41.0,30.02,SW,231,15.0,21.0,81,0.00,,,0.00,Wunderground v.1.15,2013-04-08 20:45:00,
2013-04-08 16:50:00,46.7,40.9,30.02,WSW,246,20.0,20.0,80,0.00,,,0.00,Wunderground v.1.15,2013-04-08 20:50:00,
2013-04-08 16:55:00,46.9,40.7,30.02,WSW,238,19.0,20.0,79,0.00,,,0.00,Wunderground v.1.15,2013-04-08 20:55:00,
2013-04-08 17:00:00,46.8,40.6,30.02,SW,232,18.0,19.0,79,0.00,,,0.00,Wunderground v.1.15,2013-04-08 21:00:00,
2013-04-08 17:05:00,46.4,40.9,30.02,WSW,249,13.0,20.0,81,0.00,,,0.00,Wunderground v.1.15,2013-04-08 21:05:00,
2013-04-08 17:10:00,46.4,40.9,30.02,SW,228,15.0,17.0,81,0.00,,,0.00,Wunderground v.1.15,2013-04-08 21:10:00,
2013-04-08 17:15:00,46.5,40.7,30.01,SW,228,18.0,20.0,80,0.00,,,0.00,Wunderground v.1.15,2013-04-08 21:15:00,
2013-04-08 17:20:00,46.7,40.5,30.01,SW,233,18.0,18.0,79,0.00,,,0.00,Wunderground v.1.15,2013-04-08 21:20:00,
2013-04-08 17:25:00,46.8,40.3,30.00,SSW,208,17.0,21.0,78,0.00,,,0.00,Wunderground v.1.15,2013-04-08 21:25:00,
2013-04-08 17:30:00,46.8,40.6,30.01,WSW,242,18.0,18.0,79,0.00,,,0.00,Wunderground v.1.15,2013-04-08 21:30:00,
2013-04-08 17:35:00,46.8,40.6,30.01,WSW,238,17.0,20.0,79,0.00,,,0.00,Wunderground v.1.15,2013-04-08 21:35:00,
2013-04-08 17:40:00,47.0,40.8,30.02,SW,235,12.0,16.0,79,0.00,,,0.00,Wunderground v.1.15,2013-04-08 21:40:00,
2013-04-08 17:45:00,47.1,40.9,30.02,WSW,253,16.0,19.0,79,0.00,,,0.00,Wunderground v.1.15,2013-04-08 21:45:00,
2013-04-08 17:50:00,47.3,40.5,30.03,WSW,249,17.0,17.0,77,0.00,,,0.00,Wunderground v.1.15,2013-04-08 21:50:00,
2013-04-08 17:55:00,47.3,40.5,30.03,West,280,14.0,19.0,77,0.00,,,0.00,Wunderground v.1.15,2013-04-08 21:55:00,
2013-04-08 18:00:00,47.1,40.3,30.03,WSW,257,17.0,18.0,77,0.00,,,0.00,Wunderground v.1.15,2013-04-08 22:00:00,
2013-04-08 18:05:00,47.0,40.5,30.02,West,267,17.0,18.0,78,0.00,,,0.00,Wunderground v.1.15,2013-04-08 22:05:00,
2013-04-08 18:10:00,46.9,40.4,30.02,WSW,256,13.0,17.0,78,0.00,,,0.00,Wunderground v.1.15,2013-04-08 22:10:00,
2013-04-08 18:15:00,47.0,40.2,30.03,WSW,250,16.0,18.0,77,0.00,,,0.00,Wunderground v.1.15,2013-04-08 22:15:00,
2013-04-08 18:20:00,47.2,40.0,30.02,WSW,240,13.0,16.0,76,0.00,,,0.00,Wunderground v.1.15,2013-04-08 22:20:00,
2013-04-08 18:25:00,47.3,39.8,30.02,SW,229,17.0,18.0,75,0.00,,,0.00,Wunderground v.1.15,2013-04-08 22:25:00,
2013-04-08 18:30:00,47.3,39.8,30.02,SW,235,16.0,18.0,75,0.00,,,0.00,Wunderground v.1.15,2013-04-08 22:30:00,
2013-04-08 18:35:00,47.1,39.6,30.02,WSW,246,14.0,19.0,75,0.00,,,0.00,Wunderground v.1.15,2013-04-08 22:35:00,
2013-04-08 18:40:00,46.8,39.6,30.03,WSW,243,14.0,15.0,76,0.00,,,0.00,Wunderground v.1.15,2013-04-08 22:40:00,
2013-04-08 18:45:00,46.4,39.2,30.03,WSW,250,11.0,16.0,76,0.00,,,0.00,Wunderground v.1.15,2013-04-08 22:45:00,
2013-04-08 18:50:00,46.2,39.4,30.03,West,259,14.0,16.0,77,0.00,,,0.00,Wunderground v.1.15,2013-04-08 22:50:00,
2013-04-08 18:56:00,46.0,39.2,30.04,West,267,13.0,16.0,77,0.00,,,0.00,Wunderground v.1.15,2013-04-08 22:56:00,
2013-04-08 19:01:00,45.9,38.8,30.03,WSW,246,15.0,17.0,76,0.00,,,0.00,Wunderground v.1.15,2013-04-08 23:01:00,
2013-04-08 19:06:00,46.1,39.0,30.04,WSW,238,17.0,18.0,76,0.00,,,0.00,Wunderground v.1.15,2013-04-08 23:06:00,
2013-04-08 19:10:00,46.2,38.7,30.04,WSW,243,13.0,16.0,75,0.00,,,0.00,Wunderground v.1.15,2013-04-08 23:10:00,
2013-04-08 19:15:00,46.1,39.0,30.05,West,268,13.0,16.0,76,0.00,,,0.00,Wunderground v.1.15,2013-04-08 23:15:00,
2013-04-08 19:21:00,46.2,38.7,30.05,West,271,12.0,14.0,75,0.00,,,0.00,Wunderground v.1.15,2013-04-08 23:21:00,
2013-04-08 19:26:00,45.9,39.1,30.06,West,277,12.0,14.0,77,0.00,,,0.00,Wunderground v.1.15,2013-04-08 23:26:00,
2013-04-08 19:31:00,46.1,39.0,30.06,West,271,15.0,15.0,76,0.00,,,0.00,Wunderground v.1.15,2013-04-08 23:31:00,
2013-04-08 19:36:00,46.4,38.6,30.06,WNW,283,16.0,17.0,74,0.00,,,0.00,Wunderground v.1.15,2013-04-08 23:36:00,
2013-04-08 19:41:00,46.7,38.5,30.06,West,270,15.0,17.0,73,0.00,,,0.00,Wunderground v.1.15,2013-04-08 23:41:00,
2013-04-08 19:46:00,46.8,38.6,30.06,West,277,15.0,17.0,73,0.00,,,0.00,Wunderground v.1.15,2013-04-08 23:46:00,
2013-04-08 19:51:00,46.4,38.6,30.07,WNW,287,14.0,16.0,74,0.00,,,0.00,Wunderground v.1.15,2013-04-08 23:51:00,
2013-04-08 19:56:00,46.1,39.0,30.06,WNW,288,17.0,17.0,76,0.00,,,0.00,Wunderground v.1.15,2013-04-08 23:56:00,
2013-04-08 20:01:00,45.6,39.5,30.06,WNW,283,12.0,16.0,79,0.00,,,0.00,Wunderground v.1.15,2013-04-09 00:01:00,
2013-04-08 20:06:00,45.2,39.7,30.07,WNW,293,13.0,17.0,81,0.00,,,0.00,Wunderground v.1.15,2013-04-09 00:06:00,
2013-04-08 20:11:00,44.7,39.9,30.07,WNW,292,15.0,15.0,83,0.00,,,0.00,Wunderground v.1.15,2013-04-09 00:11:00,
2013-04-08 20:16:00,44.7,39.9,30.07,WNW,287,13.0,16.0,83,0.00,,,0.00,Wunderground v.1.15,2013-04-09 00:16:00,
2013-04-08 20:21:00,44.7,40.2,30.08,WNW,287,13.0,15.0,84,0.00,,,0.00,Wunderground v.1.15,2013-04-09 00:21:00,
2013-04-08 20:26:00,44.5,40.0,30.08,WNW,285,12.0,16.0,84,0.00,,,0.00,Wunderground v.1.15,2013-04-09 00:26:00,
2013-04-08 20:31:00,45.1,39.6,30.08,WNW,291,14.0,19.0,81,0.00,,,0.00,Wunderground v.1.15,2013-04-09 00:31:00,
2013-04-08 20:37:00,45.3,39.8,30.08,WNW,283,16.0,19.0,81,0.00,,,0.00,Wunderground v.1.15,2013-04-09 00:37:00,
2013-04-08 20:42:00,45.5,39.4,30.08,West,269,16.0,17.0,79,0.00,,,0.00,Wunderground v.1.15,2013-04-09 00:42:00,
2013-04-08 20:47:00,45.6,39.5,30.08,West,269,12.0,18.0,79,0.00,,,0.00,Wunderground v.1.15,2013-04-09 00:47:00,
2013-04-08 20:52:00,45.7,39.6,30.08,WNW,285,16.0,16.0,79,0.00,,,0.00,Wunderground v.1.15,2013-04-09 00:52:00,
2013-04-08 20:57:00,45.6,39.1,30.08,West,279,17.0,18.0,78,0.00,,,0.00,Wunderground v.1.15,2013-04-09 00:57:00,
2013-04-08 21:02:00,45.5,39.4,30.07,West,267,12.0,16.0,79,0.00,,,0.00,Wunderground v.1.15,2013-04-09 01:02:00,
2013-04-08 21:07:00,45.2,39.4,30.08,West,280,12.0,16.0,80,0.00,,,0.00,Wunderground v.1.15,2013-04-09 01:07:00,
2013-04-08 21:12:00,45.2,39.4,30.09,West,272,12.0,15.0,80,0.00,,,0.00,Wunderground v.1.15,2013-04-09 01:12:00,
2013-04-08 21:17:00,45.3,39.5,30.09,West,269,13.0,15.0,80,0.00,,,0.00,Wunderground v.1.15,2013-04-09 01:17:00,
2013-04-08 21:22:00,45.3,39.2,30.08,West,269,13.0,14.0,79,0.00,,,0.00,Wunderground v.1.15,2013-04-09 01:22:00,
2013-04-08 21:27:00,45.5,39.0,30.08,West,267,14.0,15.0,78,0.00,,,0.00,Wunderground v.1.15,2013-04-09 01:27:00,
2013-04-08 21:32:00,45.8,39.0,30.08,West,267,12.0,14.0,77,0.00,,,0.00,Wunderground v.1.15,2013-04-09 01:32:00,
2013-04-08 21:37:00,45.9,39.1,30.08,West,270,11.0,14.0,77,0.00,,,0.00,Wunderground v.1.15,2013-04-09 01:37:00,
2013-04-08 21:42:00,46.2,38.7,30.08,West,269,14.0,14.0,75,0.00,,,0.00,Wunderground v.1.15,2013-04-09 01:42:00,
2013-04-08 21:47:00,46.2,39.1,30.08,West,270,14.0,14.0,76,0.00,,,0.00,Wunderground v.1.15,2013-04-09 01:47:00,
2013-04-08 21:52:00,46.2,38.7,30.08,West,260,14.0,15.0,75,0.00,,,0.00,Wunderground v.1.15,2013-04-09 01:52:00,
2013-04-08 21:57:00,46.3,38.8,30.08,WSW,252,13.0,15.0,75,0.00,,,0.00,Wunderground v.1.15,2013-04-09 01:57:00,
2013-04-08 22:02:00,46.1,39.0,30.08,WSW,246,14.0,15.0,76,0.00,,,0.00,Wunderground v.1.15,2013-04-09 02:02:00,
2013-04-08 22:07:00,46.1,39.0,30.08,WSW,246,13.0,15.0,76,0.00,,,0.00,Wunderground v.1.15,2013-04-09 02:07:00,
2013-04-08 22:12:00,46.3,38.8,30.08,WSW,240,14.0,16.0,75,0.00,,,0.00,Wunderground v.1.15,2013-04-09 02:12:00,
2013-04-08 22:17:00,46.3,38.8,30.08,West,260,14.0,17.0,75,0.00,,,0.00,Wunderground v.1.15,2013-04-09 02:17:00,
2013-04-08 22:23:00,46.0,39.2,30.08,West,271,13.0,15.0,77,0.00,,,0.00,Wunderground v.1.15,2013-04-09 02:23:00,
2013-04-08 22:28:00,45.9,39.1,30.08,West,274,12.0,15.0,77,0.00,,,0.00,Wunderground v.1.15,2013-04-09 02:28:00,
2013-04-08 22:33:00,45.6,39.1,30.08,West,274,13.0,13.0,78,0.00,,,0.00,Wunderground v.1.15,2013-04-09 02:33:00,
2013-04-08 22:38:00,45.4,39.3,30.08,West,274,10.0,13.0,79,0.00,,,0.00,Wunderground v.1.15,2013-04-09 02:38:00,
2013-04-08 22:43:00,45.5,39.0,30.08,West,276,13.0,14.0,78,0.00,,,0.00,Wunderground v.1.15,2013-04-09 02:43:00,
2013-04-08 22:48:00,45.6,39.1,30.08,West,269,12.0,14.0,78,0.00,,,0.00,Wunderground v.1.15,2013-04-09 02:48:00,
2013-04-08 22:53:00,45.4,39.3,30.08,WNW,287,8.0,14.0,79,0.00,,,0.00,Wunderground v.1.15,2013-04-09 02:53:00,
2013-04-08 22:58:00,45.2,39.1,30.08,West,277,14.0,14.0,79,0.00,,,0.00,Wunderground v.1.15,2013-04-09 02:58:00,
2013-04-08 23:03:00,45.0,39.5,30.08,West,268,12.0,14.0,81,0.00,,,0.00,Wunderground v.1.15,2013-04-09 03:03:00,
2013-04-08 23:08:00,44.8,39.3,30.08,West,277,12.0,14.0,81,0.00,,,0.00,Wunderground v.1.15,2013-04-09 03:08:00,
2013-04-08 23:13:00,44.8,39.6,30.08,West,274,11.0,14.0,82,0.00,,,0.00,Wunderground v.1.15,2013-04-09 03:13:00,
2013-04-08 23:18:00,44.7,39.5,30.08,West,274,8.0,14.0,82,0.00,,,0.00,Wunderground v.1.15,2013-04-09 03:18:00,
2013-04-08 23:23:00,44.7,39.5,30.08,West,277,9.0,14.0,82,0.00,,,0.00,Wunderground v.1.15,2013-04-09 03:23:00,
2013-04-08 23:28:00,44.7,39.5,30.07,WNW,285,13.0,14.0,82,0.00,,,0.00,Wunderground v.1.15,2013-04-09 03:28:00,
2013-04-08 23:33:00,44.5,39.3,30.07,WSW,257,12.0,13.0,82,0.00,,,0.00,Wunderground v.1.15,2013-04-09 03:33:00,
2013-04-08 23:38:00,44.3,39.5,30.07,WSW,257,12.0,13.0,83,0.00,,,0.00,Wunderground v.1.15,2013-04-09 03:38:00,
2013-04-08 23:43:00,44.1,39.6,30.07,West,270,9.0,11.0,84,0.00,,,0.00,Wunderground v.1.15,2013-04-09 03:43:00,
2013-04-08 23:48:00,44.0,39.5,30.07,West,261,10.0,12.0,84,0.00,,,0.00,Wunderground v.1.15,2013-04-09 03:48:00,
2013-04-08 23:53:00,44.0,39.5,30.07,West,260,11.0,12.0,84,0.00,,,0.00,Wunderground v.1.15,2013-04-09 03:53:00,
2013-04-08 23:59:00,44.0,39.5,30.07,West,270,12.0,13.0,84,0.00,,,0.00,Wunderground v.1.15,2013-04-09 03:59:00,